Location: ECC Obs
(38.4314°N, 90.9815°W)
Time: 00:19:27
(UTC-05:00)

Vanguard 1 - Visible Passes

Search period start: 10 April 2020 00:00
Search period end: 20 April 2020 00:00
Orbit: 649 x 3833 km, 34.2° (Epoch: 09 April)

Date Brightness Start Highest point End Pass type
(mag) Time Alt. Az. Time Alt. Az. Time Alt. Az.
10 Apr 13.1 03:14:36 21° SSE 03:14:36 21° SSE 03:20:13 10° SSE visible
10 Apr 13.2 05:27:23 11° SW 05:30:14 12° SW 05:35:32 10° SSW visible
10 Apr 10.2 20:22:09 10° SW 20:25:58 29° SSE 20:29:27 14° ESE visible
10 Apr 11.4 22:40:42 10° WSW 22:42:11 21° WSW 22:42:11 21° WSW visible
11 Apr 13.2 03:35:15 18° S 03:35:15 18° S 03:39:56 10° SSE visible
11 Apr 9.9 20:42:35 10° SW 20:46:41 38° SSE 20:49:26 21° ESE visible
11 Apr 11.9 23:01:28 10° W 23:02:09 15° W 23:02:09 15° W visible
12 Apr 13.3 03:55:53 14° S 03:55:53 14° S 03:58:52 10° S visible
12 Apr 9.7 21:03:12 10° WSW 21:07:25 47° SSE 21:09:21 31° ESE visible
13 Apr 9.5 21:23:55 10° WSW 21:28:14 53° S 21:29:15 45° SE visible
14 Apr 9.5 21:44:41 10° WSW 21:49:04 55° S 21:49:07 55° S visible
15 Apr 10.0 22:05:31 10° W 22:08:56 45° SW 22:08:56 45° SW visible
16 Apr 9.6 20:06:43 10° WSW 20:11:06 46° S 20:15:35 10° E visible
16 Apr 10.7 22:26:21 10° W 22:28:46 30° WSW 22:28:46 30° WSW visible
17 Apr 9.5 20:27:32 10° WSW 20:31:54 51° S 20:35:51 14° ESE visible
17 Apr 11.4 22:47:14 10° W 22:48:33 19° WSW 22:48:33 19° WSW visible
18 Apr 9.5 20:48:23 10° WSW 20:52:43 52° S 20:55:38 21° ESE visible
18 Apr 12.0 23:08:13 10° W 23:08:21 11° WSW 23:08:21 11° WSW visible
19 Apr 9.6 21:09:17 10° W 21:13:32 48° S 21:15:25 31° SE visible
